This demonstration page uses our WeatherBlox Daily Observations layout. Learn more.

39.01783, -85.05884

Hourly Observations for August 5, 2019

Temp ( °F °C ) Dew Point ( °F °C ) Humidity (%) Winds ( mph kmh ) Pressure ( in mb ) Visibility ( mi km ) Precip ( " mm )
12:52 am 00:52 Clear 71 21.7 62 16.7 73 73 Calm 29.94 1014 10 16.09344 0 0
1:52 am 01:52 Clear 72 22.2 62 16.7 71 71 Calm 29.94 1014 10 16.09344 0 0
2:52 am 02:52 Clear 71 21.7 62 16.7 73 73 Calm 29.94 1014 10 16.09344 0 0
3:52 am 03:52 Clear 69 20.6 62 16.7 78 78 WNW 3 6 29.94 1014 10 16.09344 0 0
4:52 am 04:52 Clear 69 20.6 62 16.7 78 78 Calm 29.94 1014 10 16.09344 0 0
5:52 am 05:52 Clear 69 20.6 63 17.2 81 81 Calm 29.94 1014 10 16.09344 0 0
6:52 am 06:52 Sunny 69 20.6 63 17.2 81 81 NNW 5 7 29.94 1014 10 16.09344 0 0
7:52 am 07:52 Sunny 70 21.1 64 17.8 82 82 Calm 29.97 1015 10 16.09344 0 0
8:52 am 08:52 Sunny 73 22.8 64 17.8 74 74 Calm 29.97 1015 10 16.09344 0 0
9:52 am 09:52 Sunny 79 26.1 66 18.9 65 65 SSW 3 6 29.97 1015 9 14.484096 0 0
10:52 am 10:52 Sunny 83 28.3 64 17.8 53 53 S 3 6 29.97 1015 10 16.09344 0 0
11:52 am 11:52 Mostly Sunny 87 30.6 63 17.2 45 45 SSW 5 7 29.97 1015 10 16.09344 0 0
12:52 pm 12:52 Partly Cloudy 86 30 61 16.1 43 43 W 6 9 29.97 1015 10 16.09344 0 0
1:52 pm 13:52 Partly Cloudy 87 30.6 61 16.1 42 42 W 6 9 29.94 1014 10 16.09344 0 0
2:52 pm 14:52 Mostly Sunny 89 31.7 59 15 36 36 WSW 7 11 29.94 1014 10 16.09344 0 0
3:52 pm 15:52 Mostly Sunny 90 32.2 60 15.6 37 37 WNW 7 11 29.91 1013 10 16.09344 0 0
4:52 pm 16:52 Mostly Sunny 89 31.7 60 15.6 38 38 WSW 12 19 29.91 1013 10 16.09344 0 0
5:52 pm 17:52 Mostly Sunny 88 31.1 61 16.1 40 40 WSW 7 11 29.88 1012 10 16.09344 0 0
6:52 pm 18:52 Mostly Sunny 86 30 62 16.7 45 45 SW 10 17 29.88 1012 10 16.09344 0 0
7:52 pm 19:52 Mostly Sunny 84 28.9 63 17.2 49 49 WSW 6 9 29.88 1012 10 16.09344 0 0
8:52 pm 20:52 Mostly Clear 80 26.7 62 16.7 54 54 SW 3 6 29.88 1012 10 16.09344 0 0
9:52 pm 21:52 Mostly Clear 78 25.6 62 16.7 58 58 SW 3 6 29.88 1012 10 16.09344 0 0
10:52 pm 22:52 Clear 77 25 62 16.7 60 60 Calm 29.88 1012 10 16.09344 0 0
11:52 pm 23:52 Clear 72 22.2 64 17.8 76 76 S 5 7 29.88 1012 10 16.09344 0 0

Powered by AerisWeather